Cedar Rapids, IA

6:34 PM CST on November 11, 2019 (GMT -0600)
The Eastern Iowa Airport

Weather History for KCID - September, 2019

Change the Weather History Date:

Tuesday, September 17, 2019

  Actual Average Record
Temperature  
Mean Temperature 72 °F 62 °F  
Max Temperature 80 °F 74 °F 99 °F (1925)
Min Temperature 64 °F 51 °F 38 °F (1943)
Degree Days  
Heating Degree Days 0 5  
Month to date heating degree days 12 47  
Since 1 July heating degree days 20 66  
Cooling Degree Days 7 2  
Month to date cooling degree days 83 55  
Year to date cooling degree days 735 723  
Growing Degree Days 22 (Base 50)    
Moisture  
Dew Point 66 °F    
Average Humidity 84    
Maximum Humidity 100    
Minimum Humidity 67    
Precipitation  
Precipitation 0.00 in 0.10 in 2.29 in (1977)
Month to date precipitation 2.42 1.87  
Year to date precipitation 30.27 27.17  
Sea Level Pressure  
Sea Level Pressure 30.06 in    
Wind  
Wind Speed 9 mph (SE)    
Max Wind Speed 15 mph    
Max Gust Speed 19 mph    
Visibility 9 miles    
Events      
T = Trace of Precipitation, MM = Missing Value Source: NWS Daily Summary

Daily Weather History Graph

Daily Weather History Graph

Search for Another Location

Airport or City:

Astronomy

Sep. 17, 2019 Rise Set
Actual Time 6:48 AM CDT 7:13 PM CDT
Civil Twilight 6:20 AM CDT 7:41 PM CDT
Nautical Twilight 5:48 AM CDT 8:13 PM CDT
Astronomical Twilight 5:14 AM CDT 8:47 PM CDT
Moon 9:13 PM CDT (9/17) 9:56 AM CDT (9/17)
Length of Visible Light 13h 20m
Length of Day
12h 24m
Waning Gibbous, 89% of the Moon is Illuminated
Sep 17
Waning Gibbous
Sep 21
Last Quarter
Sep 28
New
Oct 5
First Quarter
Oct 13
Full

Hourly Weather History & Observations

Time (CDT) Temp. Heat Index Dew Point Humidity Pressure Visibility Wind Dir Wind Speed Gust Speed Precip Events Conditions
12:52 AM 66.0 °F - 64.0 °F 93% 30.06 in 10.0 mi SE 5.8 mph - N/A   Clear
1:52 AM 66.0 °F - 64.0 °F 93% 30.06 in 10.0 mi ESE 4.6 mph - N/A   Clear
2:52 AM 66.0 °F - 64.0 °F 93% 30.07 in 10.0 mi SE 6.9 mph - N/A   Clear
3:52 AM 64.0 °F - 63.0 °F 96% 30.07 in 8.0 mi SE 5.8 mph - N/A   Clear
4:52 AM 64.9 °F - 64.0 °F 97% 30.08 in 8.0 mi SSE 5.8 mph - N/A   Mostly Cloudy
5:52 AM 64.9 °F - 63.0 °F 93% 30.09 in 8.0 mi SSE 9.2 mph - N/A   Clear
6:52 AM 64.9 °F - 63.0 °F 93% 30.10 in 6.0 mi SE 9.2 mph - N/A   Clear
7:52 AM 66.0 °F - 64.0 °F 93% 30.11 in 8.0 mi SSE 5.8 mph - N/A   Clear
8:52 AM 68.0 °F - 64.9 °F 90% 30.11 in 7.0 mi SE 11.5 mph - N/A   Clear
9:52 AM 72.0 °F - 66.0 °F 81% 30.10 in 9.0 mi SE 10.4 mph - N/A   Clear
10:52 AM 73.9 °F - 64.9 °F 73% 30.10 in 10.0 mi SSE 10.4 mph - N/A   Clear
11:52 AM 75.9 °F - 66.0 °F 71% 30.09 in 10.0 mi SSE 10.4 mph - N/A   Clear
12:52 PM 77.0 °F - 66.9 °F 71% 30.08 in 10.0 mi ESE 11.5 mph - N/A   Clear
1:52 PM 77.0 °F - 66.0 °F 69% 30.07 in 10.0 mi SE 11.5 mph - N/A   Clear
2:52 PM 77.0 °F - 66.0 °F 69% 30.05 in 10.0 mi ESE 11.5 mph - N/A   Clear
3:52 PM 79.0 °F - 66.9 °F 66% 30.03 in 10.0 mi ESE 13.8 mph - N/A   Clear
4:52 PM 80.1 °F 82.7 °F 68.0 °F 67% 30.02 in 10.0 mi SE 12.7 mph - N/A   Clear
5:52 PM 79.0 °F - 68.0 °F 69% 30.01 in 10.0 mi SE 9.2 mph - N/A   Clear
6:52 PM 75.0 °F - 66.9 °F 76% 30.01 in 10.0 mi SE 8.1 mph - N/A   Clear
7:52 PM 72.0 °F - 66.9 °F 84% 30.01 in 10.0 mi ESE 8.1 mph - N/A   Clear
8:52 PM 70.0 °F - 66.9 °F 90% 30.02 in 10.0 mi SE 6.9 mph - N/A   Clear
9:52 PM 70.0 °F - 66.9 °F 90% 30.03 in 9.0 mi ESE 8.1 mph - N/A   Clear
10:52 PM 69.1 °F - 66.9 °F 93% 30.02 in 8.0 mi ESE 8.1 mph - N/A   Clear
11:52 PM 69.1 °F - 68.0 °F 96% 30.02 in 8.0 mi SE 8.1 mph - N/A   Clear